GSAT0223

Last updated on Fri Feb 10 2023 00:03:18 GMT+0000 (Coordinated Universal Time)

1 49809U 21116A 23039.78938391 -.00000066 00000+0 00000+0 0 9997 2 49809 57.2425 14.6962 0002226 261.0100 99.2617 1.70475940 7319
UTC large
Height (km)
Speed (km/s)
/
Latitude / Longitude
Inclination (degrees)
Orbital Period (minutes)
Azimuth
Elevation
Range (km)
Doppler Factor

Next 0 passes for location: London (51.5072 / 0.1276)

Sorry there are no passes over London.